Tracking 35275 objects as of 8-Sep-2026
HD Live streaming from Space Station
objects crossing your sky now

FSW-0 8


FSW-0 8 is no longer on orbit


NORAD ID: 17001
Int'l Code: 1986-076A
Launch date: October 6, 1986
Source: People's Republic of China (PRC)
Launch site: Jiuquan Satellite Launch Center, China (JSC)
Decay date: 1986-10-23
Your satellite tracking list
Your tracking list is empty




NASA's NSSDC Master Catalog

Two Line Element Set (TLE):
1 17001U 86076A   86295.97262643  .09265652 +52955-4 +14273-3 0  9990
2 17001 056.9362 335.5706 0020634 178.2835 181.8662 16.46500558002701
Source of the keplerian elements: AFSPC